Погода в Озерном

Россия / Красноярский край     58°27′54″N   92°04′59″E
темп.,
°C
ветер,
м/с
пор.,
м/с
влажн.,
%
обл.,
%
осадки,
мм/ч
давл.,
гПа
погр.,
м
25 февраля, чт
чт2501:00−24в3119344 0.0 1024417
04:00−23в4128963 0.0 1020510
07:00−21в5148982 0.1 1016623
10:00−20вюв61395100 0.8 1014637
13:00−15юв4891100 0.9 1013535
16:00−14юз5878100 0.4 10131239
19:00−18зюз3987100 0.4 1016288
22:00−20юз2993100 0.0 1018276
26 февраля, пт
пт2601:00−20ююз31095100 0.1 1019663
04:00−21юз4118899 0.1 1020785
07:00−22ююз3993100 0.1 1020722
10:00−20юз41085100 0.1 10221417
13:00−19зюз5878100 0.1 10221704
16:00−19зюз4879100 0.1 10241676
19:00−21юз2895100 0.1 1026367
22:00−21юз3995100 0.1 1027550
27 февраля, сб
сб2701:00−23юз4993100 0.1 1028447
04:00−25зюз3893100 0.1 1030553
07:00−26юз3893100 0.1 1031573
10:00−25зюз3791100 0.1 1032732
13:00−23юз3588100 0.2 1033905
16:00−23юз3688100 0.1 1033926
19:00−24юз2696100 0.1 1033254
22:00−25зюз2598100 0.1 1034183
28 февраля, вс
вс2801:00−26зюз2497100 0.1 103490
04:00−26юз2597100 0.1 1035194
07:00−26юз2697100 0.1 1036239
10:00−24юз3693100 0.1 1037542
13:00−22юз3690100 0.2 1037718
16:00−21зюз3590100 0.1 1037750
19:00−23юз2397100 0.1 103784
22:00−25юз229696 0.0 103738
1 марта, пн
пн101:00−27ююз129797 0.0 103719
04:00−29ююв129853 0.0 103619
07:00−29вюв239938 0.0 103427
10:00−25вюв369673 0.0 1031242
13:00−19вюв379184 0.0 1027374
16:00−15вюв488578 0.0 1023485
19:00−18в3109386 0.0 1022415
22:00−16вюв41094100 0.1 1020502